www.pogodaiklimat.ru

Погода и климат >> Архив погоды >> Австралия >> Квинсленд >> Чарвилл


ПОГОДА в Чарвилле

  • Прогноз погоды в Чарвилле
  • Монитор погоды в Чарвилле

АРХИВ ПОГОДЫ в Чарвилле

Время (UTC), дата Ветер
(напр.,м/с)
 
Видим.   Явления Облачность Т
(С)
Тd
(С)
f
(%)
Тe
(С)
Тes
(С)
Комфортность P
(гПа)
Po
(гПа)
Тmin
(С)
Tmax
(С)
R
(мм)
R24
(мм)
S
(см)
02 12.03 З 3 н/о н/о +38.1 +6.0 14 +35 +35 очень
жарко
1008.6 974.5 +25.9
03 12.03 ЮЗ 5 н/о н/о +38.9 +5.5 13 +36 +36 очень
жарко
1008.0 973.9
05 12.03 ЮЗ 7 н/о н/о +39.3 +5.8 13 +37 +37 очень
жарко
1006.1 972.1
06 12.03 ЮЗ 7 н/о н/о +39.2 +5.7 13 +36 +36 очень
жарко
1005.9 971.9
08 12.03 Ю 4 н/о 1/0
[]
+37.4 +6.4 15 +35 +35 очень
жарко
1006.5 972.5
09 12.03 Ю 4 н/о н/о +35.8 +7.0 17 +34 +34 очень
жарко
1007.0 973.0
11 12.03 Ю 4 н/о н/о +33.2 +7.2 20 +31 +31 жарко 1008.7 974.6
12 12.03 Ю 3 н/о н/о +31.5 +7.9 23 +30 +30 жарко 1009.6 975.5
14 12.03 Ю 3 н/о н/о +28.0 +8.3 29 +28 +28 жарко 1010.3 976.2 +40.3
15 12.03 Ю 4 н/о н/о +29.3 +7.2 25 +28 +28 жарко 1010.3 976.2
17 12.03 Ю 3 н/о н/о +26.7 +6.7 28 +26 +26 жарко 1010.2 976.1
18 12.03 Ю 3 н/о н/о +25.1 +6.8 31 +25 +25 комфорт 1010.2 976.1
20 12.03 Ю 1 н/о н/о +22.4 +5.4 33 +23 +23 комфорт 1011.7 977.5
21 12.03 СВ 3 н/о н/о +24.0 +5.4 30 +24 +24 комфорт 1011.9 977.7
23 12.03 В 4 н/о н/о +30.4 +3.4 18 +28 +28 жарко 1012.1 977.9
00 13.03 Ю 2 н/о н/о +31.3 +4.9 19 +29 +29 жарко 1012.1 977.9
02 13.03 СЗ 4 н/о н/о +35.7 +6.0 16 +33 +33 жарко 1010.2 976.1 +22.2
03 13.03 ЮЗ 4 н/о н/о +36.1 +4.4 14 +33 +33 жарко 1009.6 975.5
05 13.03 ЮЗ 6 н/о н/о +37.4 +4.4 13 +34 +34 очень
жарко
1008.2 974.1
06 13.03 ЮЗ 7 н/о н/о +37.5 +3.3 12 +34 +34 очень
жарко
1007.9 973.8
08 13.03 Ю 4 н/о н/о +35.9 +4.2 14 +33 +33 жарко 1008.3 974.2
09 13.03 Ю 3 н/о н/о +33.8 +3.6 15 +31 +31 жарко 1008.8 974.7
11 13.03 Ю 3 н/о н/о +30.1 +4.0 19 +28 +28 жарко 1010.1 976.0
12 13.03 Ю 3 н/о н/о +28.9 +3.0 19 +27 +27 жарко 1010.6 976.5
14 13.03 Ю 3 н/о 1/0
[]
+26.4 +0.9 19 +25 +25 комфорт 1011.1 976.9 +38.9
15 13.03 ЮВ 2 н/о н/о +24.9 +1.1 21 +24 +24 комфорт 1010.6 976.5
17 13.03 Ю 2 н/о н/о +23.0 +0.8 23 +22 +22 комфорт 1010.1 976.0
18 13.03 ЮЗ 2 н/о н/о +21.1 +1.4 27 +21 +21 комфорт 1009.8 975.7
20 13.03 Ю 3 н/о 6/0
[]
+22.5 +0.9 24 +22 +22 комфорт 1010.6 976.5
21 13.03 Ю 4 н/о н/о +24.0 +0.4 21 +23 +23 комфорт 1011.3 977.1
23 13.03 ЮВ 4 н/о н/о +30.4 -1.1 13 +27 +27 жарко 1011.6 977.4
00 14.03 Ю 3 н/о н/о +32.9 -0.2 12 +30 +30 жарко 1011.5 977.3
02 14.03 З 3 н/о н/о +36.3 +5.5 15 +34 +34 очень
жарко
1009.6 975.5 +21.2
03 14.03 С 7 н/о н/о +37.2 +6.3 15 +35 +35 очень
жарко
1008.5 974.4
05 14.03 З 5 н/о н/о +38.4 +4.0 12 +35 +35 очень
жарко
1006.5 972.5
06 14.03 ЮЗ 4 н/о н/о +38.0 +3.7 12 +35 +35 очень
жарко
1006.1 972.1
08 14.03 Ю 6 н/о н/о +36.1 +2.2 12 +33 +33 жарко 1006.7 972.7
09 14.03 Ю 6 н/о н/о +33.6 +1.4 13 +30 +30 жарко 1007.4 973.4
11 14.03 Ю 4 н/о н/о +30.0 -0.4 14 +27 +27 жарко 1008.9 974.8
12 14.03 Ю 2 н/о н/о +27.9 -0.2 16 +26 +26 жарко 1009.5 975.4
14 14.03 Ю 3 н/о н/о +26.2 0.0 18 +24 +24 комфорт 1009.6 975.5 +39.2
15 14.03 Ю 3 н/о н/о +24.5 -0.6 19 +23 +23 комфорт 1010.0 975.9
17 14.03 Ю 3 н/о 1/0
[]
+23.5 -0.7 20 +22 +22 комфорт 1009.3 975.2
18 14.03 Ю 4 н/о н/о +23.8 -1.9 18 +22 +22 комфорт 1009.2 975.1
20 14.03 штиль 0 н/о 4/0
[]
+21.6 -2.3 20 +21 +21 комфорт 1010.2 976.1
21 14.03 В 1 н/о н/о +22.1 -2.6 19 +21 +21 комфорт 1010.9 976.7
23 14.03 ЮВ 4 н/о н/о +28.2 -3.9 12 +25 +25 комфорт 1011.1 976.9
00 15.03 ЮВ 4 н/о н/о +30.5 -3.3 11 +27 +27 жарко 1011.1 976.9
02 15.03 ЮЗ 1 н/о 4/0
[]
+31.5 -1.3 12 +28 +46 жарко 1009.8 975.7 +21.2
03 15.03 Ю 5 н/о н/о +31.8 -1.1 12 +28 +28 жарко 1009.4 975.3
05 15.03 Ю 8 н/о 9/0
[]
+31.7 -3.6 10 +28 +29 жарко 1006.7 972.7
06 15.03 Ю 5 н/о н/о +31.6 -2.4 11 +28 +28 жарко 1007.2 973.2
08 15.03 Ю 7 н/о 10/0
[]
+29.5 -4.0 11 +26 +26 жарко 1008.3 974.2
09 15.03 Ю 5 н/о н/о +28.4 -3.7 12 +25 +25 комфорт 1009.3 975.2
11 15.03 Ю 5 н/о 9/0
[]
+27.4 -3.4 13 +25 +25 комфорт 1010.6 976.5
12 15.03 ЮВ 3 н/о н/о +26.4 -3.2 14 +24 +24 комфорт 1010.9 976.7
14 15.03 штиль 0 н/о н/о +21.3 -2.5 20 +21 +21 комфорт 1010.2 976.1 +34.5
15 15.03 ЮВ 2 н/о н/о +19.7 -2.6 22 +20 +20 1009.5 975.4
17 15.03 ЮВ 2 н/о н/о +18.6 -2.3 24 +19 +19 1008.9 974.8
18 15.03 штиль 0 н/о н/о +17.6 -2.1 26 +18 +18 1008.8 974.7
20 15.03 штиль 0 н/о н/о +16.8 -2.3 27 +17 +17 1009.8 975.7
21 15.03 Ю 2 н/о н/о +18.4 -2.0 25 +19 +19 1010.8 976.6
23 15.03 С 3 н/о н/о +26.5 +15.2 50 +29 +29 жарко 1010.8 976.6
00 16.03 С 5 н/о н/о +28.2 +14.4 43 +30 +30 жарко 1010.4 976.3
02 16.03 СЗ 4 н/о 5/5 1500 м
[]
+31.1 +14.3 36 +33 +39 душно 1009.2 975.1 +16.7
03 16.03 С 3 н/о н/о +31.3 +13.1 33 +32 +32 жарко 1008.2 974.1
05 16.03 З 2 н/о 5/0
[]
+32.6 +11.2 27 +32 +41 жарко 1005.8 971.8
06 16.03 С 6 н/о н/о +27.6 +14.3 44 +30 +30 жарко 1006.3 972.3
08 16.03 В 6 н/о {туман} 8/8 600 м
[]
+22.9 +17.1 70 +28 +28 душно 1008.3 974.2
09 16.03 СВ 5 н/о н/о +23.3 +18.2 73 +29 +29 душно 1008.4 974.3
11 16.03 СВ 4 н/о {туман} 3/0
[]
+22.8 +16.8 69 +28 +28 душно 1010.3 976.2
12 16.03 СВ 3 н/о н/о +22.4 +17.3 73 +27 +27 душно 1010.6 976.5
14 16.03 Ю 3 н/о н/о +20.6 +17.4 82 +25 +25 комфорт 1011.3 977.1 +34.0
15 16.03 ЮВ 2 н/о н/о +20.1 +17.3 84 +24 +24 комфорт 1010.8 976.6
17 16.03 СВ 3 н/о н/о +20.1 +17.3 84 +23 +23 комфорт 1010.1 976.0
18 16.03 В 2 н/о н/о +19.8 +17.2 85 +23 +23 комфорт 1010.0 975.9
20 16.03 С 2 н/о {туман} н/о +19.7 +17.3 86 +23 +23 комфорт 1010.5 976.4
21 16.03 С 2 н/о н/о +20.2 +17.2 83 +24 +24 комфорт 1011.3 977.1
23 16.03 С 3 н/о {туман} н/о +25.1 +18.3 66 +30 +30 душно 1012.4 978.2
00 17.03 СЗ 5 н/о н/о +26.8 +18.6 61 +32 +32 очень
душно
1012.3 978.1
02 17.03 СЗ 2 н/о н/о +30.2 +17.6 47 +34 +34 очень
душно
1011.1 976.9 +19.7
03 17.03 ЮЗ 2 н/о н/о +31.7 +16.8 41 +35 +35 очень
душно
1010.1 976.0
05 17.03 ЮЗ 4 н/о 1/0
[]
+34.2 +8.8 21 +33 +40 жарко 1008.6 974.5
06 17.03 ЮЗ 3 н/о н/о +34.0 +8.6 21 +33 +33 жарко 1008.3 974.2
08 17.03 штиль 0 н/о н/о +32.8 +7.6 21 +31 +31 жарко 1008.8 974.7
09 17.03 ЮВ 4 н/о н/о +30.2 +11.7 32 +31 +31 жарко 1009.5 975.4
11 17.03 ЮВ 3 н/о 1/0
[]
+27.7 +12.1 38 +29 +29 жарко 1011.3 977.1
12 17.03 ЮВ 4 н/о н/о +27.3 +12.1 39 +29 +29 жарко 1012.1 977.9
14 17.03 ЮВ 3 н/о н/о +25.5 +13.7 48 +28 +28 жарко 1012.1 977.9 +34.6
15 17.03 ЮВ 4 н/о н/о +25.4 +13.3 47 +27 +27 жарко 1011.9 977.7
17 17.03 В 3 н/о н/о +23.6 +14.3 56 +26 +26 жарко 1011.2 977.0
18 17.03 В 3 н/о н/о +23.4 +14.9 59 +27 +27 душно 1011.3 977.1
20 17.03 штиль 0 н/о н/о +20.6 +15.6 73 +23 +23 комфорт 1012.0 977.8
21 17.03 ЮВ 1 н/о н/о +22.2 +16.7 71 +27 +27 душно 1012.4 978.2
23 17.03 В 4 н/о н/о +27.3 +16.6 52 +31 +31 душно 1013.3 979.1
00 18.03 В 3 н/о н/о +29.6 +16.4 45 +33 +33 душно 1013.2 979.0
02 18.03 С 2 н/о 10/0 2000 м
[]
+31.8 +12.1 30 +32 +41 жарко 1011.7 977.5 +20.5
03 18.03 ЮВ 3 н/о н/о +32.7 +10.7 26 +32 +32 жарко 1010.5 976.4
05 18.03 Ю 3 н/о 1/0
[]
+34.9 +8.6 20 +33 +41 жарко 1008.5 974.4
06 18.03 ЮЗ 4 н/о н/о +34.7 +7.7 19 +33 +33 жарко 1008.0 973.9
08 18.03 Ю 4 н/о н/о +33.9 +5.4 17 +32 +32 жарко 1008.4 974.3
09 18.03 Ю 4 н/о н/о +31.5 +6.5 21 +30 +30 жарко 1009.2 975.1
11 18.03 ЮВ 3 н/о н/о +28.0 +8.3 29 +28 +28 жарко 1010.8 976.6
12 18.03 ЮВ 3 н/о н/о +26.8 +8.7 32 +27 +27 жарко 1011.4 977.2
14 18.03 В 3 н/о н/о +26.1 +9.0 34 +26 +26 жарко 1011.5 977.3 +35.9
15 18.03 В 3 н/о н/о +24.9 +9.6 38 +26 +26 жарко 1011.3 977.1
17 18.03 В 2 н/о н/о +22.1 +11.5 51 +24 +24 комфорт 1010.4 976.3
18 18.03 В 2 н/о н/о +22.1 +10.6 48 +24 +24 комфорт 1010.4 976.3
20 18.03 штиль 0 н/о 1/0
[]
+20.3 +11.8 58 +22 +22 комфорт 1011.0 976.8
21 18.03 Ю 2 н/о н/о +21.1 +12.8 59 +23 +23 комфорт 1011.5 977.3
23 18.03 С 4 н/о 9/0 2000 м
[]
+29.4 +10.0 30 +29 +33 жарко 1012.7 978.5
00 19.03 В 3 н/о н/о +31.6 +8.0 23 +30 +30 жарко 1012.7 978.5

 

Местоположение метеостанции Чарвилл (Квинсленд, Австралия): широта -26.41 долгота 146.26 высота над уровнем моря 303 м.

В архиве по умолчанию представлена погода в Чарвилле за последнюю неделю. Архивные данные за месяц целиком и за предыдущие месяцы, начиная с января 2011 года, Вы можете получить, выбрав интересующий диапазон дат из раскрывающегося списка и нажав кнопку "Ввод!".


*Определитесь, кто Вы:
робот инопланетянин человек

Внимание! Время в таблицах - всемирное. Для получения местного времени необходимо прибавить поправку, которая равна 10 ч.

Смотрите также архив погоды в соседних городах и на ближайших метеорологических станциях:

Погода в Блэколле (Квинсленд, Австралия) (237 км)
Погода в Роме (Квинсленд, Австралия) (251 км)
Погода в Сейнт Джордж (Квинсленд, Австралия) (295 км)
Погода в Таргоминде (Квинсленд, Австралия) (299 км)
Погода в Лочингтоне (Квинсленд, Австралия) (304 км)
Погода в Роллстоне (Квинсленд, Австралия) (321 км)
Погода в Эмералде (Квинсленд, Австралия) (371 км)
Погода в Лонгриче (Квинсленд, Австралия) (387 км)
Погода в Майлсе (Квинсленд, Австралия) (391 км)
Погода в Бурке (Новый Южный Уэльс, Австралия) (404 км)

Пояснения к столбцам:

Ветер - указаны скорость ветра в м/с - средняя за 10 мин, порывы в срок и между сроками (в фигурных скобках) и направление, откуда дует ветер: С - северный, СВ - северо-восточный, В - восточный, ЮВ - юго-восточный, Ю - южный, ЮЗ - юго-западный, З - западный, СЗ - северо-западный.
Видимость - горизонтальная дальность видимости в метрах или километрах. При видимости от 1 до 10 км при отсутствии осадков обычно наблюдается дымка, при ухудшении видимости до 1 км и менее - туман. В сухую погоду видимость может ухудшаться дымом, пылью или мглою.
Явления - указаны атмосферные явления, наблюдавшиеся в срок или в последний час перед сроком; фигурными скобками обозначены явления, наблюдавшиеся между сроками (за 1-3 часа до срока); квадратными скобками обозначены град или гололедные отложения с указанием их диаметра в мм.
Облачность - указаны через наклонную черту общая и нижняя облачность в баллах и высота нижней границы облаков в метрах; квадратными скобками обозначены формы облаков: Ci - перистые, Cs - перисто-слоистые, Cc - перисто-кучевые, Ac - высококучевые, As - высокослоистые, Sc - слоисто-кучевые, Ns - слоисто-дождевые, Cu - кучевые, Cb - кучево-дождевые. Подробнее классификацию облаков см. в Атласе облаков (PDF).
T - Температура воздуха - температура, измеренная на высоте 2 м над землей.
Td - Температура точки росы - температура, при понижении до которой содержащийся в воздухе водяной пар достигнет насыщения.
f - Относительная влажность воздуха - влажноcть воздуха, измеренная на высоте 2 м над землей.
Te - Эффективная температура - температура, которую ощущает одетый по сезону человек в тени. Характеристика душности погоды. При расчете учитывается влияние влажности воздуха и скорости ветра на теплоощущения человека.
Tes - Эффективная температура на солнце - температура, которую ощущает человек, с поправкой на солнечный нагрев. Характеристика знойности погоды. Зависит от высоты солнца над горизонтом, облачности и скорости ветра. Ночью, в пасмурную погоду, а также при ветре 12 м/с и более поправка равна нулю.
P - Атмосферное давление - приведенное к уровню моря атмосферное давление.
Po - Атмосферное давление - измеренное на уровне метеостанции атмосферное давление.
Tmin - Минимальная температура - минимум температуры воздуха на высоте 2 м над землей.
Tmax - Максимальная температура - максимум температуры воздуха на высоте 2 м над землей.
R - Количество осадков - Количество выпавших осадков за период времени, мм. При наведении курсора мыши на число - период времени, за который выпало указанное количество осадков.
R24 - Количество осадков - Количество выпавших осадков за 24 часа, мм.
S - Снежный покров - Высота снежного покрова, см. При наведении курсора мыши на число - состояние снежного покрова и степень покрытия местности в баллах.